Location: Arleux
(50.3632°N, 2.8721°E)
Time: 19:53:05
(UTC+00:00)

Cosmos 1346 Rocket - Pass Details

Date: 15 December 2019
Orbit: 524 x 555 km, 81.2° (Epoch: 22 January)

Event Time Altitude Azimuth Distance (km) Brightness Sun altitude
Exits shadow 05:15:41 24° 5° (N) 1,130 4.3 -22.0°
Drops below altitude 10° 05:17:21 10° 9° (N) 1,792 5.4 -21.7°
Sets 05:19:32 0° 11° (NNE) 2,692 6.4 -21.4°
